Погода в Малоярославеце

Погода в Малоярославеце : погода сейчас, прогноз погоды и архив. Всё, что Вы хотите узнать о погоде в Малоярославеце!

Хотите узнать прогноз погоды в Малоярославеце? Тогда Вам сюда: Погода в Малоярославеце

Поиск расширенной информации на нашем сайте:

Другие новости

Новости СМИ2

Главная страница сайта

Новости сайта

02.10.2013

Напоминаем, что на нашем новом сайте вы можете получить высокодетализированные прогнозы погоды по пунктам России, СНГ и мира (включающие важные для авиации метеовеличины, такие как направление и скорость ветра, видимость, явления погоды, количество и форма облачности, нижняя и верхняя граница облачности), а также ознакомиться с разнообразными материалами по авиационной метеорологии и подборкой полезных ссылок на эту тему.

Сайт Метеоцентр.Азия посвящён разработке технологий оптимизации авиаметеорологического обслуживания, включая проектирование и перспективное создание нескольких автоматизированных авиаметеорологических систем:
- система выпуска высокодетальных прогностических карт явлений погоды для нижнего воздушного пространства по России и ближнему зарубежью;
- система верификации прогнозов TAF (выпускаемых синоптиками официальных АМСГ РФ и ближнего зарубежья) и AUTOTAF (выпускаемых сайтом Метеоцентр.Азия) - выявление ошибок, онлайн-сопоставление с фактической погодой METAR, автоматическое внесение коррективов в прогнозы при резком отклонении фактической погоды от прогноза, подсчёт оправдываемости прогнозов по элементам и в целом;
- система обработки, анализа и отображения авиаметеорологической информации для применения провайдерами метеорологической информации.

Рекомендуем: http://www.usadba22.ru/ купить дачный участок в рассрочку.

Погода в Малоярославеце - сегодня

Время (UTC), дата Ветер
(°,м/с) 
Видим.   Явления Облачность Т
(°С)
Тd
(°С)
f(%) Тe
(°С)
Pmin
(гПа)
dP
(гПа)
Po
(мм)
O2
(г/м3)
Тmin Tmax R s Состояние
почвы
03 25.06.17 200 (Ю) 20000 м    9/0 средняя 
[Ac trans]
+11.3 +7.6 78 +12  1007.1  -0.4  738  284  +8.7         
06 25.06.17 210 (ЮЗ) 20000 м    9/0 средняя 
[Ac trans]
+14.4 +10.6 78 +17  1007  0.2  738  280  +8.7         
09 25.06.17 230 (ЮЗ) 20000 м  {ливн. осадки}  9/9 500 м 
[Sc]
+15.9 +12.8 82 +21  1006.8  738  278           
12 25.06.17 230 (ЮЗ) 20000 м  {ливн. осадки}  6/6 300 м 
[Sc]
+20 +12.9 64 +26  1006.7  0.2  738  275           
15 25.06.17 220 (ЮЗ) 20000 м    6/6 300 м 
[Sc]
+20 +13.3 65 +26  1006.5  -0.2  738  274      0.3     
18 25.06.17 200 (Ю) 20000 м    3/0 средняя 
[Ac trans]
+17.7 +14.4 81 +27  1006.4  -0.3  738  276    +21.3  0.3     
21 25.06.17 220 (ЮЗ) н/о  {ливн. осадки}  10/10 480 м 
[Sc]
+15.8 +14 89 +24  1006.9  0.4  738  278           
00 26.06.17 210 (ЮЗ) н/о  {ливн. осадки}  8/8 480 м 
[Sc]
+13.1 +12.2 94 +19  1007.5  0.3  738  281           
03 26.06.17 210 (ЮЗ) 20000 м    ясно 
+14.8 +13.1 90 +21  1007.4  738  279  +13.1    0.7     
06 26.06.17 200 (Ю) 20000 м    4/3 600 м средняя 
[Cu Sc|Ac trans]
+19.7 +12.8 64 +26  1006.5  -0.4  738  275  +13.1    0.7     
09 26.06.17 210 (ЮЗ) 20000 м    9/9 600 м 
[Sc]
+22.7 +14 58 +30  1005.5  -0.8  737  271           
12 26.06.17 210 (ЮЗ) 20000 м  {ливн. осадки}  6/3 600 м средняя 
[Cu med, cong|Ac trans]
+24.6 +15.8 58 +35  1004.2  -1  737  269           
15 26.06.17 220 (ЮЗ) 3{12}  4000 м  слаб. ливневой дождь  10/10 330 м кучево-дожд. 
[Cb cap]
+16.8 +15.4 91 +27  1004.6  -0.2  736  276         
18 26.06.17 200 (Ю) 20000 м  {ливн. осадки}  9/9 600 м 
[Sc]
+16.9 +15.5 91 +28  1003.3  -1.3  735  276    +24.9     
21 26.06.17 260 (З) 2{11}  н/о  слаб. ливневой дождь  10/10 600 м кучево-дожд. 
[Cb cap]
+16.9 +13.7 81 +25  1003.6  0.3  736  276           
00 27.06.17 270 (З) н/о  {ливн. осадки}  9/9 600 м 
[Sc]
+13.6 +11.3 86 +18  1005.8  1.8  737  281           
03 27.06.17 230 (ЮЗ) 20000 м    9/9 630 м 
[Sc]
+13.6 +11.1 85 +17  1006.9  738  281  +12.9       
06 27.06.17 220 (ЮЗ) 20000 м  в посл. час ливневой дождь  9/0 средняя 
[Ac trans]
+13.8 +12 89 +18  1007.3  0.4  738  281  +12.9    0.3     
09 27.06.17 230 (ЮЗ) 20000 м    5/5 600 м 
[Cu Sc]
+18.6 +10.2 58 +21  1007.7  0.8  739  277           
12 27.06.17 270 (З) 20000 м    6/6 600 м 
[Cu Sc]
+19.2 +7.7 47 +20  1008.5  0.8  739  277           
15 27.06.17 260 (З) 20000 м    4/4 600 м 
[Cu med, cong]
+20.3 +6.4 40 +20  1008.4  739  276      0.0     
18 27.06.17 220 (ЮЗ) 20000 м    ясно 
+17 +8.4 57 +18  1009.3  0.7  740  279    +20.6       
21 27.06.17 220 (ЮЗ) н/о    ясно 
+13.5 +8.8 73 +14  1010.4  0.8  740  283           
00 28.06.17 240 (ЮЗ) н/о    1/0 средняя 
[Ac trans]
+11.2 +7.4 77 +11  1011.7  741  286           
03 28.06.17 230 (ЮЗ) 20000 м    ясно 
+12.8 +8.1 73 +13  1012.7  1.1  742  284  +10.1         
Время (UTC), дата Ветер
(°,м/с) 
Видим.   Явления Облачность Т
(°С)
Тd
(°С)
f(%) Тe
(°С)
Pmin
(гПа)
dP
(гПа)
Po
(мм)
O2
(г/м3)
Тmin Tmax R s Состояние
почвы

Для получения пояснительной информации подведите курсор к названию столбца.

ПОГОДА в Малоярославеце - архив

Всё, что Вы хотите узнать о погоде в Малоярославеце - удобно и подробно!

Выберите нужную дату (начиная с 1 января 2015* года) и нажмите кнопку "Найти".
Будут отображены архивные сводки погоды по пункту Малоярославец, начиная с указанной даты.


Отображать данные в формате CSV (для использования в таблицах Excel)


Внимание! Наш архив погоды предназначен исключительно для личного некоммерческого использования в познавательных целях. Если Вам необходимы официальные справки о состоянии погоды (для производственных, юридических, коммерческих и т.п. целей), обращайтесь в органы Росгидромета.

*Примечание: данная дата относится к архиву по метеостанциям СССР (Россия, СНГ, Балтия).
Архив по метеостанциям Зарубежной Европы и Азии (кроме Китая) хранится 10 дней, по другим регионам земного шара (Китай, Африка, Америка, Австралия, Океания) - 1 день.

Малоярославец - район местоположения метеостанции


Название, широта, долгота, высота метеостанции:
Малоярославец 55°ш. 36.5°д. 197 м над ур. моря [Российская Федерация]

Дополнительная информация

В oтличие oт бoльшинства пoгoдных сайтoв мы публикуем пoдрoбную метеoинфoрмацию в детальнoм прoфессиoнальнoм фoрмате.

Характеристики температуры и влажнoсти вoздуха измеряются на высoте 2 м в тени вдали oт зданий и деревьев.
Скoрoсть ветра измеряется на высoте 10 м (на урoвне рoста челoвека скoрoсть ветра ниже в 1.5-2 раза). Если метеoстанция нахoдится в гoрoде или в лесу, тo скoрoсть ветра занижена на 2-4 м/с пo сравнению с oткрытым местoм. Скoрoсть ветра над акватoриями крупных рек и oзёр, а также на вершинах хoлмoв на 2-5 м/с выше, чем в oбычных услoвиях.
Атмoсфернoе давление в разных тoчках местнoсти мoжет значительнo oтличаться oт давления на метеoстанции, в зависимoсти oт услoвий рельефа (при пoдъёме на 10 м давление пoнижается примернo на 1 мм рт.ст.).